CSS (TIANHE) (48274 NORAD) Tracking and Keplerian Element Data

This shows tracking and keplerian element data for the satellite.

Feedback or suggestion? Click here.




ElementValue
Catalog48274
NameCSS (TIANHE)
Epoch Orbit21532
Epoch Day34.91797881
Epoch Year2025
RAAN111.8587
Inclination41.4655
Eccentricity0.0002592
Argument of Perigee80.4906
Mean Anonmoly279.6225
Mean Motion15.58886286
Decay Rate0.00035966
L11 48274U 21035A 25034.91797881 .00035966 00000+0 45325-3 0 9990
L22 48274 41.4655 111.8587 0002592 80.4906 279.6225 15.58886286215321



Live tracking and technical data element details for CSS (TIANHE) (NORAD 48274). CSS (TIANHE) can be tracked NOW for your location showing map with azimuth and elevation plus other details from your city location.







IsCatalogInMostPopularTable: catalog: 48274, numindb: 4754
Update: records affected: 1



GetName: 48274 CSS (TIANHE)

Hit Count: updated at: Wed, 30 Apr 2025 15:54:01 GMT